This is the latest recevied weather packets stored in our database for station/object KC9EGS. If no packets are shown the sender has not sent any weather packets the latest 10 day(s).
| Time | Temp. | Humidity | Pressure | Rain* | Wind** | Luminosity | Snow |
|---|---|---|---|---|---|---|---|
| 1777993523 | 5° C | 50% | 1002.8 hPa | 0 mm | - | - | - |
| 1777992917 | 4.44° C | 53% | 1002.8 hPa | 0 mm | - | - | - |
| 1777992323 | 4.44° C | 55% | 1002.8 hPa | 0 mm | - | - | - |
| 1777992018 | 3.89° C | 56% | 1002.7 hPa | 0 mm | - | - | - |
| 1777991724 | 3.89° C | 56% | 1002.7 hPa | 0 mm | - | - | - |
| 1777991116 | 3.89° C | 58% | 1002.7 hPa | 0 mm | - | - | - |
| 1777990522 | 3.89° C | 58% | 1002.7 hPa | 0 mm | - | - | - |
| 1777989318 | 3.89° C | 59% | 1002.2 hPa | 0 mm | - | - | - |
| 1777988417 | 3.33° C | 65% | 1002.1 hPa | 0 mm | - | - | - |
| 1777988123 | 3.33° C | 65% | 1002.1 hPa | 0 mm | - | - | - |
| 1777987519 | 3.33° C | 67% | 1002.1 hPa | 0 mm | - | - | - |
| 1777986924 | 2.78° C | 67% | 1002.1 hPa | 0 mm | - | - | - |
| 1777986618 | 2.78° C | 67% | 1001.7 hPa | 0 mm | - | - | - |
| 1777986323 | 2.78° C | 68% | 1001.7 hPa | 0 mm | - | - | - |
| 1777985716 | 2.78° C | 67% | 1001.4 hPa | 0 mm | - | - | - |
| 1777984817 | 2.22° C | 69% | 1001.5 hPa | 0 mm | - | - | - |
| 1777984524 | 2.22° C | 69% | 1001.5 hPa | 0 mm | - | - | - |
| 1777983918 | 2.22° C | 72% | 1001.5 hPa | 0 mm | - | - | - |
| 1777983323 | 1.67° C | 72% | 1001.5 hPa | 0 mm | - | - | - |
| 1777983018 | 1.67° C | 73% | 1001.2 hPa | 0 mm | - | - | - |
| 1777982116 | 1.11° C | 73% | 1000.9 hPa | 0 mm | - | - | - |
| 1777981522 | 1.11° C | 73% | 1000.9 hPa | 0 mm | - | - | - |
| 1777981216 | 1.11° C | 73% | 1000.7 hPa | 0 mm | - | - | - |
| 1777980923 | 1.11° C | 74% | 1000.7 hPa | 0 mm | - | - | - |
| 1777980316 | 0.56° C | 73% | 1000.7 hPa | 0 mm | - | - | - |
* Rain latest hour (hover to see other rain measurements)
** Current wind speed in m/s (hover to see current wind gust speed)